Hourly Data Report for May 19, 2020

All times are specified in Local Standard Time (LST). Add 1 hour to adjust for Daylight Saving Time where and when it is observed.

OTTAWA INTL A
ONTARIO
Current Station Operator: NAVCAN

45°19'00.000" N
75°40'00.000" W
114.90 m
6106001
71628
YOW

Download Data

Hourly Data (May 2020)
Hourly Data Report for May 19, 2020
TIME Temp Definition
°C
Dew Point Definition
°C
Rel Hum Definition
%
Wind Dir Definition
10's deg

Wind Spd Definition
km/h
Visibility Definition
km
Stn Press Definition
kPa
Hmdx Definition


Wind Chill Definition


Weather Definition


00:00 11.7 -6.0 28 7 30 24.1 101.19     LegendNANA
01:00 10.7 -7.1 28 7 26 24.1 101.22     Clear
02:00 9.2 -6.3 33 6 15 24.1 101.22     LegendNANA
03:00 8.2 -5.2 39 5 19 24.1 101.24     LegendNANA
04:00 8.1 -4.3 41 5 22 24.1 101.27     Mainly Clear
05:00 7.9 -2.7 47 5 21 24.1 101.30     LegendNANA
06:00 9.7 -1.7 45 6 27 24.1 101.36     LegendNANA
07:00 11.8 -0.4 43 6 30 24.1 101.42     Mainly Clear
08:00 13.6 0.6 41 6 27 24.1 101.44     LegendNANA
09:00 15.0 0.2 36 5 30 24.1 101.44     LegendNANA
10:00 15.2 0.4 36 5 29 24.1 101.43     Mostly Cloudy
11:00 17.7 2.2 35 6 26 24.1 101.42     LegendNANA
12:00 17.7 1.5 34 7 21 24.1 101.39     LegendNANA
13:00 18.6 3.0 35 5 21 24.1 101.35     Mostly Cloudy
14:00 19.1 2.5 33 7 23 24.1 101.33     LegendNANA
15:00 18.8 1.4 31 6 21 24.1 101.29     LegendNANA
16:00 19.5 2.1 31 6 18 24.1 101.26     Mostly Cloudy
17:00 19.2 1.0 29 8 18 24.1 101.25     LegendNANA
18:00 19.0 2.0 32 7 21 24.1 101.25     LegendNANA
19:00 17.3 1.0 33 6 18 24.1 101.28     Mostly Cloudy
20:00 14.7 1.2 40 5 17 24.1 101.32     LegendNANA
21:00 12.2 1.5 48 5 19 24.1 101.38     LegendNANA
22:00 12.8 1.0 44 6 16 24.1 101.39     Mainly Clear
23:00 11.6 1.1 48 7 15 24.1 101.41     LegendNANA

Notes on Data Quality.

Legend

  • E = Estimated
  • M = Missing
  • NA = Not Available*
  • [empty] = Indicates an unobserved value
Date modified: